[[{"header":{"parameterUnit":"m.s-1","parameterCategory":1,"la1":30.2991,"la2":30.254,"lo1":-89.0895,"lo2":-89.0444,"dy":0.0017,"dx":0.0017,"nx":28,"ny":28,"refTime":"2025-04-21T09:00:00:Z","depth":0,"parameterNumber":2,"parameterNumberName":"U-component_of_WINDS"},"data":[0,0,0,0,0,0,0,0,0,0,0,0,0,0,0,0,0,0,0,0,0,0,0,0,0,0,0,0,0,0,0,0,0,0,0,0,0,0,0,0,0,0,0,0,0,0,0,0,0,0,0,0,0,0,0,0,0,0,-2.1441,-2.1442,0,-2.1508,-2.1508,-2.1509,-2.1515,-2.1515,-2.1514,-2.1513,-2.1582,-2.1584,-2.1587,0,0,0,0,0,0,0,0,0,0,0,0,0,-2.1322,-2.1324,-2.1441,-2.1442,-2.1443,-2.1507,-2.1508,-2.1509,-2.1516,-2.1515,-2.1514,-2.1513,-2.1581,-2.1584,-2.1587,0,0,0,0,0,0,0,0,0,0,0,0,0,-2.138,-2.1325,-2.1441,-2.1454,-2.1456,-2.1507,-2.1508,-2.151,-2.1516,-2.1515,-2.1514,-2.1513,-2.158,-2.1584,-2.1587,-2.1631,0,0,-2.1599,-2.16,0,0,0,0,0,0,0,0,-2.1376,-2.1384,-2.1451,-2.1453,-2.1455,-2.1502,-2.1491,-2.155,-2.1516,-2.1493,-2.1513,-2.1512,-2.1556,-2.1562,-2.1577,-2.1634,-2.1637,-2.1599,-2.1601,-2.1603,-2.1604,0,0,0,0,0,0,0,-2.1372,-2.1381,-2.1468,-2.1452,-2.1455,-2.1457,-2.1464,-2.1503,-2.153,-2.1495,-2.1495,-2.1503,-2.1557,-2.1573,-2.1578,-2.1638,-2.1599,-2.1602,-2.1604,-2.1606,-2.1736,-2.1737,0,0,0,0,0,0,-2.1366,-2.1378,-2.1465,-2.147,-2.1412,-2.146,-2.1468,-2.1488,-2.1529,-2.1534,-2.1504,-2.1503,-2.1567,-2.1574,-2.1581,-2.1635,-2.1603,-2.1606,-2.1608,-2.1735,-2.1736,-2.1738,0,0,0,0,0,0,-2.1363,-2.1373,-2.1463,-2.1424,-2.1435,-2.1463,-2.1486,-2.149,-2.1506,-2.1536,-2.1541,-2.1515,-2.1567,-2.1575,-2.1619,-2.1637,-2.1608,-2.1611,-2.1733,-2.1735,-2.1737,-2.1743,0,0,0,0,0,0,-2.136,-2.1372,-2.1389,-2.1424,-2.1437,-2.1499,-2.1487,-2.1492,-2.1512,-2.1512,-2.1548,-2.1553,-2.1566,-2.1613,-2.1622,-2.1642,-2.1614,-2.1732,-2.1734,-2.1736,-2.1741,-2.1745,-2.1748,0,0,0,0,0,-2.1355,-2.1388,-2.139,-2.14,-2.1458,-2.15,-2.1508,-2.1523,-2.1514,-2.1531,-2.155,-2.1552,-2.1634,-2.1617,-2.1628,-2.1649,-2.1731,-2.1734,-2.1736,-2.174,-2.1744,-2.1748,0,0,0,0,0,0,-2.1354,-2.1393,-2.1395,-2.144,-2.1467,-2.1501,-2.1523,-2.1527,-2.1557,-2.1555,-2.1573,-2.1581,-2.1623,-2.1641,-2.1621,-2.1694,-2.1681,-2.1686,-2.1681,-2.1685,-2.1688,-2.1683,-2.1617,0,0,0,0,0,-2.1359,-2.139,-2.1422,-2.1458,-2.1472,-2.1495,-2.1514,-2.1523,-2.1551,-2.1563,-2.1586,-2.1614,-2.1646,-2.1667,-2.1698,-2.1744,-2.1753,-2.1764,-2.1767,-2.177,-2.1774,-2.18,-2.1806,-2.1747,-2.1747,-2.1747,0,0,-2.137,-2.1395,-2.1413,-2.1459,-2.1481,-2.1512,-2.1505,-2.1538,-2.1562,-2.1568,-2.161,-2.1628,-2.166,-2.1706,-2.1727,-2.1721,-2.1792,-2.1773,-2.1775,-2.1778,-2.1804,-2.1809,-2.1814,-2.1749,-2.1748,-2.1748,0,0,-2.1405,-2.1427,-2.146,-2.1482,-2.1515,-2.1531,-2.1539,-2.1573,-2.1585,-2.1627,-2.1633,-2.1662,-2.1717,-2.174,-2.1759,-2.1804,-2.1807,-2.1814,-2.1831,-2.1856,-2.1861,-2.1865,-2.1881,-2.1887,-2.1818,-2.1818,-2.1818,0,-2.1414,-2.1461,-2.1476,-2.151,-2.153,-2.1538,-2.1572,-2.1593,-2.1634,-2.1648,-2.1642,-2.1712,-2.1734,-2.1785,-2.1796,-2.1811,-2.1821,-2.1809,-2.1859,-2.1863,-2.1868,-2.1883,-2.1889,-2.1818,-2.1818,-2.1818,-2.1818,0,-2.1471,-2.1503,-2.1526,-2.1566,-2.1589,-2.1623,-2.1644,-2.1665,-2.1673,-2.1689,-2.1733,-2.176,-2.1797,-2.181,-2.1818,-2.1863,-2.1858,-2.1855,-2.1843,-2.1874,-2.1889,-2.1895,-2.1819,-2.1819,-2.1819,-2.1819,0,0,-2.1506,-2.1555,-2.1563,-2.1581,-2.1619,-2.1645,-2.1679,-2.1715,-2.1733,-2.1763,-2.1792,-2.1839,-2.1837,-2.1858,-2.1869,-2.1891,-2.1925,-2.1886,-2.1887,-2.1892,-2.1977,-2.1978,-2.1985,-2.1928,-2.1929,-2.193,-2.1974,0,-2.1545,-2.1606,-2.1621,-2.1673,-2.1704,-2.1712,-2.1742,-2.1769,-2.1785,-2.1814,-2.1833,-2.1866,-2.186,-2.1873,-2.1896,-2.1916,-2.1943,-2.1914,-2.1955,-2.1957,-2.1946,-2.1993,-2.1994,-2.2034,-2.198,-2.1981,-2.1981,0,-2.1599,-2.1629,-2.1684,-2.1718,-2.1731,-2.1758,-2.1793,-2.182,-2.1851,-2.1861,-2.1886,-2.1895,-2.1931,-2.1918,-2.1969,-2.1949,-2.1967,-2.198,-2.1982,-2.1986,-2.197,-2.1998,-2.2047,-2.2053,-2.1991,-2.199,-2.1989,0,-2.1619,-2.1673,-2.1713,-2.1729,-2.177,-2.1788,-2.1806,-2.1836,-2.1857,-2.1888,-2.1902,-2.1936,-2.1955,-2.1982,-2.2001,-2.1989,-2.205,-2.2038,-2.206,-2.206,-2.2072,-2.2071,-2.2125,-2.2085,-2.2085,-2.2085,-2.2084,0,-2.1661,-2.1694,-2.1723,-2.1747,-2.1785,-2.1803,-2.184,-2.1858,-2.1885,-2.1913,-2.1923,-2.195,-2.1972,-2.2003,-2.2017,-2.2057,-2.2066,-2.2076,-2.2079,-2.2075,-2.2073,-2.2086,-2.2084,-2.2086,-2.2086,-2.2086,-2.2085,0,-2.169,-2.171,-2.1754,-2.1789,-2.1799,-2.1825,-2.1856,-2.188,-2.1897,-2.1934,-2.1943,-2.197,-2.2007,-2.2028,-2.2073,-2.2083,-2.2128,-2.213,-2.2117,-2.2118,-2.2139,-2.2137,-2.2203,-2.2213,-2.2166,-2.2166,-2.2167,0,-2.1715,-2.1741,-2.1779,-2.1798,-2.1816,-2.1848,-2.187,-2.1889,-2.1911,-2.1948,-2.1968,-2.2005,-2.2035,-2.2093,-2.2117,-2.2152,-2.2155,-2.2176,-2.216,-2.2155,-2.2155,-2.2153,-2.2156,-2.2178,-2.2179,-2.2179,-2.2179,0,-2.1758,-2.1766,-2.1797,-2.1831,-2.1856,-2.1884,-2.1912,-2.1928,-2.1952,-2.1976,-2.2013,-2.2037,-2.2083,-2.212,-2.2157,-2.2176,-2.2182,-2.2184,-2.2191,-2.2187,-2.2178,-2.2183,-2.2124,-2.2182,-2.2182,-2.2182,-2.2182,-2.2182,-2.1785,-2.1809,-2.1839,-2.1873,-2.1896,-2.1922,-2.1946,-2.1967,-2.1998,-2.2037,-2.2046,-2.2085,-2.2116,-2.2167,-2.2187,-2.2218,-2.2215,-2.2225,-2.2227,-2.2229,-2.223,-2.2173,-2.2225,-2.2225,-2.2225,-2.2225,-2.2225,0,-2.1828,-2.1849,-2.1879,-2.1918,-2.1945,-2.1948,-2.1979,-2.2001,-2.2035,-2.2063,-2.2093,-2.2136,-2.2171,-2.2198,-2.2235,-2.2255,-2.2258,-2.2264,-2.2262,-2.2267,-2.2231,-2.2221,-2.226,-2.226,-2.226,-2.226,-2.226,-2.226,-2.1854,-2.1894,-2.1906,-2.1958,-2.1978,-2.2015,-2.2033,-2.2057,-2.208,-2.2127,-2.2156,-2.2174,-2.2202,-2.2241,-2.2274,-2.2281,-2.2294,-2.2299,-2.2307,-2.2273,-2.2269,-2.2265,-2.2256,-2.2302,-2.2302,-2.234,-2.234,-2.234]},{"header":{"parameterUnit":"m.s-1","parameterCategory":1,"la1":30.2991,"la2":30.254,"lo1":-89.0895,"lo2":-89.0444,"dy":0.0017,"dx":0.0017,"nx":28,"ny":28,"refTime":"2025-04-21T09:00:00:Z","depth":0,"parameterNumber":3,"parameterNumberName":"V-component_of_WINDS"},"data":[0,0,0,0,0,0,0,0,0,0,0,0,0,0,0,0,0,0,0,0,0,0,0,0,0,0,0,0,0,0,0,0,0,0,0,0,0,0,0,0,0,0,0,0,0,0,0,0,0,0,0,0,0,0,0,0,0,0,4.505,4.5051,0,4.5131,4.5132,4.5133,4.5103,4.5101,4.5099,4.5097,4.5177,4.518,4.5184,0,0,0,0,0,0,0,0,0,0,0,0,0,4.4866,4.4869,4.505,4.5051,4.5052,4.5131,4.5132,4.5133,4.5103,4.5101,4.5099,4.5096,4.5175,4.518,4.5185,0,0,0,0,0,0,0,0,0,0,0,0,0,4.4946,4.487,4.505,4.5046,4.5047,4.5131,4.5132,4.5134,4.5104,4.5101,4.5098,4.5095,4.5174,4.518,4.5185,4.5276,0,0,4.5203,4.5205,0,0,0,0,0,0,0,0,4.4942,4.4953,4.5046,4.5047,4.5048,4.5104,4.5096,4.5181,4.5104,4.5082,4.5097,4.5094,4.5155,4.5162,4.5183,4.528,4.5283,4.5203,4.5207,4.5209,4.5211,0,0,0,0,0,0,0,4.4936,4.4949,4.5082,4.5047,4.5048,4.504,4.5048,4.5112,4.5133,4.5084,4.5082,4.5092,4.5154,4.5177,4.5185,4.5284,4.5203,4.5208,4.5212,4.5214,4.5461,4.5464,0,0,0,0,0,0,4.4931,4.4945,4.5079,4.5084,4.4987,4.5046,4.5055,4.5089,4.5132,4.5136,4.5094,4.509,4.5169,4.5178,4.5187,4.5297,4.5209,4.5215,4.5218,4.5458,4.5461,4.5465,0,0,0,0,0,0,4.4927,4.4943,4.5076,4.5014,4.5031,4.5052,4.509,4.5092,4.5115,4.514,4.5143,4.5114,4.5167,4.5179,4.5255,4.5299,4.5217,4.5222,4.5454,4.5459,4.5463,4.5516,0,0,0,0,0,0,4.4922,4.4942,4.4977,4.5015,4.5034,4.5143,4.5093,4.5095,4.5125,4.5121,4.5159,4.5163,4.5166,4.5246,4.526,4.5306,4.5227,4.545,4.5456,4.5461,4.5511,4.5522,4.5532,0,0,0,0,0,4.4915,4.4988,4.4979,4.4995,4.5079,4.5146,4.5156,4.5159,4.5129,4.5164,4.5181,4.5162,4.5292,4.5254,4.527,4.5317,4.5447,4.5454,4.5461,4.5506,4.552,4.5532,0,0,0,0,0,0,4.4952,4.4992,4.4983,4.5071,4.5105,4.5141,4.5185,4.5174,4.5217,4.521,4.5211,4.522,4.5298,4.5315,4.5272,4.5408,4.5365,4.5375,4.5394,4.5407,4.5418,4.5412,4.5232,0,0,0,0,0,4.4971,4.5023,4.5055,4.5129,4.5147,4.5163,4.5193,4.5192,4.5227,4.5241,4.5263,4.5297,4.5346,4.5378,4.5424,4.5514,4.5521,4.5554,4.5565,4.5574,4.5582,4.5631,4.5646,4.5488,4.5488,4.5487,0,0,4.5009,4.5038,4.507,4.5137,4.5164,4.5217,4.5176,4.5233,4.5273,4.525,4.5323,4.534,4.5378,4.5462,4.5499,4.5478,4.5628,4.5582,4.5589,4.5593,4.564,4.5655,4.5669,4.5492,4.5491,4.5491,0,0,4.5106,4.5133,4.5198,4.5227,4.5268,4.5279,4.5295,4.5333,4.5344,4.5418,4.5402,4.5448,4.5532,4.556,4.5585,4.5695,4.568,4.571,4.5766,4.5814,4.5826,4.5837,4.5877,4.5891,4.5719,4.5719,4.5719,0,4.5148,4.5229,4.5233,4.5293,4.5323,4.5306,4.5372,4.5399,4.5453,4.5473,4.545,4.5556,4.558,4.567,4.5697,4.5718,4.5735,4.5705,4.5824,4.5836,4.5846,4.5883,4.5898,4.5722,4.5722,4.5722,4.5721,0,4.5279,4.5335,4.5382,4.5437,4.5472,4.5535,4.5547,4.5582,4.5579,4.5592,4.5668,4.5697,4.5749,4.5771,4.5767,4.5861,4.5846,4.5824,4.578,4.5864,4.59,4.5914,4.5727,4.5726,4.5725,4.5724,0,0,4.5399,4.5457,4.5474,4.55,4.5545,4.5589,4.565,4.5703,4.5733,4.5772,4.5823,4.5895,4.5875,4.5904,4.5904,4.5946,4.6032,4.5918,4.5919,4.5938,4.6137,4.6153,4.617,4.6023,4.6025,4.6027,4.6133,0,4.55,4.561,4.5616,4.5715,4.5767,4.5753,4.5807,4.5841,4.5855,4.5901,4.5916,4.5967,4.5937,4.5954,4.5996,4.6013,4.6072,4.6005,4.6069,4.6072,4.606,4.6188,4.6205,4.6304,4.6147,4.6149,4.6151,0,4.5632,4.5676,4.5781,4.5821,4.5843,4.5891,4.5941,4.5985,4.6023,4.603,4.6064,4.6058,4.6121,4.6076,4.6163,4.6118,4.6144,4.6157,4.6161,4.6166,4.6116,4.6196,4.6335,4.635,4.6173,4.6171,4.6169,0,4.571,4.5795,4.587,4.5892,4.594,4.5974,4.5996,4.6031,4.6063,4.6106,4.6126,4.6175,4.6202,4.624,4.6248,4.6215,4.6334,4.629,4.6342,4.6341,4.6366,4.6365,4.6511,4.6385,4.6385,4.6384,4.6384,0,4.5821,4.5885,4.5905,4.5951,4.6023,4.6029,4.61,4.6119,4.6151,4.62,4.6191,4.6236,4.6244,4.6291,4.6297,4.6368,4.638,4.6387,4.6388,4.6388,4.6387,4.6405,4.6398,4.6388,4.6387,4.6387,4.6386,0,4.5919,4.5935,4.6015,4.6055,4.6067,4.6118,4.6152,4.6195,4.6209,4.6271,4.6285,4.6307,4.6362,4.6374,4.6439,4.6444,4.6528,4.6522,4.6515,4.6514,4.6565,4.656,4.6727,4.675,4.6609,4.6611,4.6612,0,4.5989,4.6039,4.6085,4.6117,4.6141,4.6193,4.6226,4.6235,4.6269,4.6317,4.6355,4.6409,4.6453,4.6542,4.6563,4.6613,4.6608,4.6663,4.6615,4.6614,4.6609,4.6605,4.661,4.6672,4.6674,4.6675,4.6676,0,4.6111,4.6117,4.6165,4.6217,4.6257,4.6298,4.6337,4.6364,4.6378,4.6417,4.6474,4.6509,4.6576,4.663,4.6681,4.6702,4.6691,4.6691,4.6706,4.6706,4.67,4.6704,4.654,4.6687,4.6686,4.6685,4.6684,4.6684,4.6197,4.6241,4.6281,4.6335,4.6366,4.6403,4.6446,4.6466,4.6515,4.6571,4.6573,4.6636,4.6673,4.674,4.6765,4.6813,4.6796,4.6817,4.6822,4.6827,4.6831,4.6693,4.6822,4.6822,4.6822,4.6821,4.6821,0,4.6318,4.6344,4.6394,4.645,4.6493,4.6481,4.6524,4.656,4.6616,4.6653,4.6697,4.6763,4.6816,4.6842,4.6894,4.6928,4.6925,4.6942,4.6939,4.6944,4.6844,4.6826,4.6944,4.6944,4.6944,4.6944,4.6944,4.6943,4.6387,4.6461,4.6472,4.6561,4.6585,4.6648,4.6673,4.6707,4.6737,4.6811,4.6856,4.6873,4.6906,4.6961,4.7009,4.7015,4.7034,4.7054,4.7057,4.6963,4.6951,4.6939,4.6922,4.7058,4.7058,4.7153,4.7154,4.7155]}]]